Tracking 29892 objects as of 21-Nov-2024
HD Live streaming from Space Station
objects crossing your sky now

COSMOS 494

Track COSMOS 494 now!
10-day predictions
COSMOS 494 is classified as:


NORAD ID: 6059
Int'l Code: 1972-043A
Perigee: 770.3 km
Apogee: 786.0 km
Inclination: 74.1 °
Period: 100.3 minutes
Semi major axis: 7149 km
RCS: 2.2371 m2 (large)
Launch date: June 23, 1972
Source: Commonwealth of Independent States (former USSR) (CIS)
Launch site: PLESETSK MISSILE AND SPACE COMPLEX (PKMTR)
Your satellite tracking list
Your tracking list is empty




NASA's NSSDC Master Catalog

Two Line Element Set (TLE):
1 06059U 72043A   24325.60329114  .00000345  00000-0  12707-3 0  9990
2 06059  74.0568  54.2892 0011022 329.3917  30.6592 14.36226641741789
Source of the keplerian elements: AFSPC